Location: Coffee Creek Observatory
(38.8077°N, 94.7179°W)
Time: 22:24:28
(UTC-06:00)

Amateur Radio Satellites - All Passes

Search period start: 16 December 2017 21:54
Search period end: 17 December 2017 21:54
Location: Coffee Creek Observatory, 38.8077°N, 94.7179°W

Satellite Date Start Highest point End Downlink Frequencies (MHz)
Time Altitude Azimuth
RS-15 16 Dec 21:58:36 22:09:22 37° 39° (NE) 22:19:34 29.354- 29.394
AO-85 16 Dec 22:12:02 22:15:39 35° 308° (NW) 22:19:28 145.980
SO-50 16 Dec 22:13:24 22:14:23 11° 38° (NE) 22:15:22 436.795
DELFI C3 16 Dec 22:14:52 22:17:08 15° 268° (W) 22:19:24 145.870
EO-88 16 Dec 22:15:29 22:18:34 26° 264° (W) 22:21:40 145.990 - 145.960
FALCONSAT 3 16 Dec 22:36:47 22:40:19 44° 172° (S) 22:43:50 435.103
LO-87 16 Dec 22:37:32 22:41:00 59° 76° (ENE) 22:44:29 145.935 - 145.965
ESTCUBE 1 16 Dec 22:49:28 22:53:55 63° 74° (ENE) 22:58:25 437.505/2401.250
FO-29 16 Dec 22:53:08 22:55:40 12° 307° (NW) 22:58:07 435.910
SPROUT 16 Dec 22:58:59 23:01:50 18° 67° (ENE) 23:04:41 437.525
PRISM 16 Dec 23:00:39 23:04:46 88° 105° (ESE) 23:08:50 437.425
AIST 2D 16 Dec 23:02:14 23:05:24 30° 97° (E) 23:08:33 435.315
TIGRISAT 16 Dec 23:04:01 23:07:40 26° 290° (WNW) 23:11:23 435.000
UNISAT 6 16 Dec 23:08:14 23:11:37 22° 292° (WNW) 23:15:02 437.425
EO-79 16 Dec 23:15:40 23:17:54 14° 92° (E) 23:20:07 145.935-145.965
POLYITAN 1 16 Dec 23:38:16 23:41:48 25° 96° (E) 23:45:20 437.675
SO-50 16 Dec 23:51:02 23:55:42 67° 57° (ENE) 00:00:25 436.795
QB50P2 17 Dec 00:03:42 00:07:53 58° 101° (E) 00:12:03 145.880/145.840
DUCHIFAT 1 17 Dec 00:04:49 00:08:46 39° 98° (E) 00:12:42 145.980
RS-15 17 Dec 00:11:11 00:22:50 73° 245° (WSW) 00:33:51 29.354- 29.394
VELOX 1 17 Dec 00:11:50 00:16:16 72° 75° (ENE) 00:20:43 145.980
FALCONSAT 3 17 Dec 00:15:38 00:19:09 45° 188° (S) 00:22:41 435.103
ESTCUBE 1 17 Dec 00:29:47 00:31:06 11° 270° (W) 00:32:25 437.505/2401.250
NANOSAT C BR1 17 Dec 00:32:34 00:36:47 82° 285° (WNW) 00:41:00 145.865
50 SAT 17 Dec 00:32:41 00:34:55 18° 70° (ENE) 00:37:10 437.505
SPROUT 17 Dec 00:33:30 00:37:25 36° 262° (W) 00:41:21 437.525
BUGSAT 1 17 Dec 00:36:01 00:38:56 19° 95° (E) 00:41:52 437.445
AIST 2D 17 Dec 00:36:18 00:38:16 14° 292° (WNW) 00:40:15 435.315
UKube-1 17 Dec 00:39:55 00:42:52 18° 66° (ENE) 00:45:50 .
EO-79 17 Dec 00:49:50 00:53:50 44° 287° (WNW) 00:57:51 145.935-145.965
DX 1 17 Dec 00:59:39 01:03:52 49° 73° (ENE) 01:08:06 434.975-435.025
POLYITAN 1 17 Dec 01:14:01 01:17:28 25° 291° (WNW) 01:20:54 437.675
Gurwin Techsat 1B 17 Dec 01:21:17 01:25:45 27° 95° (E) 01:30:10 435.225
YUBILEINY 17 Dec 01:27:05 01:32:40 19° 78° (ENE) 01:38:15 435.215
SO-50 17 Dec 01:33:29 01:35:36 13° 252° (WSW) 01:37:43 436.795
AO-91 17 Dec 01:39:52 01:43:11 49° 100° (E) 01:46:27 145.960
BEESAT 17 Dec 01:40:32 01:42:48 13° 62° (ENE) 01:45:04 436.000
DUCHIFAT 1 17 Dec 01:41:26 01:44:05 17° 294° (WNW) 01:46:44 145.980
QB50P2 17 Dec 01:41:34 01:43:08 12° 296° (WNW) 01:44:43 145.880/145.840
FALCONSAT 3 17 Dec 01:55:00 01:57:50 21° 202° (SSW) 02:00:40 435.103
Oscar 19 17 Dec 01:57:37 02:02:52 84° 103° (ESE) 02:08:04 437.125/150
50 SAT 17 Dec 02:04:28 02:06:43 18° 264° (W) 02:08:59 437.505
ITUPSAT 1 17 Dec 02:08:48 02:12:40 25° 67° (ENE) 02:16:32 437.325
BUGSAT 1 17 Dec 02:10:45 02:14:18 30° 289° (WNW) 02:17:52 437.445
UKube-1 17 Dec 02:14:34 02:18:35 37° 262° (W) 02:22:37 .
CUBESAT XI-V 17 Dec 02:27:02 02:29:20 14° 63° (ENE) 02:31:36 437.345
RS-15 17 Dec 02:27:47 02:32:53 14° 265° (W) 02:37:54 29.354- 29.394
MOZHAYETS 4 17 Dec 02:31:12 02:35:40 62° 74° (ENE) 02:40:11
DX 1 17 Dec 02:38:04 02:40:17 14° 268° (W) 02:42:30 434.975-435.025
M-CUBED/EXP-1 PRIME 17 Dec 02:55:50 02:57:19 12° 94° (E) 02:58:47 437.505
Gurwin Techsat 1B 17 Dec 03:00:53 03:05:42 36° 291° (WNW) 03:10:30 435.225
PCSat 17 Dec 03:13:35 03:18:52 51° 58° (ENE) 03:24:08 145.827
BEESAT 17 Dec 03:15:17 03:19:59 65° 258° (WSW) 03:24:44 436.000
ITAMSAT 1 17 Dec 03:16:15 03:20:23 24° 95° (E) 03:24:29 435.822/435.867
YUBILEINY 17 Dec 03:19:26 03:28:16 83° 277° (W) 03:37:11 435.215
AO-7 17 Dec 03:30:59 03:39:10 54° 102° (ESE) 03:47:16 .
Oscar 19 17 Dec 03:39:27 03:41:25 12° 300° (WNW) 03:43:25 437.125/150
ITUPSAT 1 17 Dec 03:46:06 03:50:20 32° 263° (W) 03:54:34 437.325
CUBESAT XI-V 17 Dec 04:01:31 04:06:07 62° 260° (W) 04:10:47 437.345
KKS-1 17 Dec 04:02:04 04:05:43 25° 68° (ENE) 04:09:22 437.445
MOZHAYETS 4 17 Dec 04:11:44 04:13:12 11° 270° (W) 04:14:42
BEESAT 3 17 Dec 04:24:57 04:28:49 60° 56° (ENE) 04:32:38 437.485
M-CUBED/EXP-1 PRIME 17 Dec 04:27:44 04:32:07 59° 291° (WNW) 04:36:11 437.505
STARS 17 Dec 04:37:19 04:40:49 24° 68° (ENE) 04:44:18 437.465
ITAMSAT 1 17 Dec 04:55:09 04:59:55 38° 291° (WNW) 05:04:40 435.822/435.867
DOVE 4 17 Dec 04:55:20 04:59:34 45° 98° (E) 05:03:35 437.250
JUGNU 17 Dec 04:57:44 04:59:18 11° 183° (S) 05:00:51 437.505
PCSat 17 Dec 04:57:56 05:01:51 20° 254° (WSW) 05:05:44 145.827
NO-84 17 Dec 05:01:06 05:03:24 22° 127° (SE) 05:05:49 435.350 FM
AO-85 17 Dec 05:03:44 05:06:57 17° 45° (NE) 05:10:16 145.980
BEESAT 2 17 Dec 05:11:35 05:15:32 52° 56° (NE) 05:19:24 435.950
YUBILEINY 17 Dec 05:21:27 05:26:29 16° 298° (WNW) 05:31:35 435.215
AO-7 17 Dec 05:24:15 05:31:33 35° 300° (WNW) 05:38:49 .
LilacSat-2 17 Dec 05:31:59 05:34:47 19° 94° (E) 05:37:34 437.200
STRAND 1 17 Dec 05:33:36 05:35:53 13° 61° (ENE) 05:38:10 437.568
NUDT-PHONESAT 17 Dec 05:35:36 05:37:04 12° 92° (E) 05:38:32 437.300
KKS-1 17 Dec 05:38:19 05:42:08 28° 263° (W) 05:45:59 437.445
XW-2D 17 Dec 05:42:09 05:45:17 24° 95° (E) 05:48:25 145.860 - 145.880
KAITUO 1B 17 Dec 05:43:33 05:46:00 16° 93° (E) 05:48:27 145.475/437.950
XW-2B 17 Dec 05:57:48 06:01:22 35° 98° (E) 06:04:53 145.730 - 145.750
XW-2F 17 Dec 06:07:14 06:10:55 43° 99° (E) 06:14:33 145.980 - 146.000
STARS 17 Dec 06:13:10 06:16:59 29° 263° (W) 06:20:49 437.465
XW-2C 17 Dec 06:25:09 06:29:02 84° 102° (ESE) 06:32:52 145.795 - 145.815
CUTE 1.7 + AOD 2 17 Dec 06:25:49 06:28:55 19° 93° (E) 06:32:00 437.475
DOVE 4 17 Dec 06:34:19 06:36:48 15° 296° (WNW) 06:39:14 437.250
NO-84 17 Dec 06:37:57 06:40:30 25° 325° (NW) 06:43:13 435.350 FM
CUTE-I 17 Dec 06:40:33 06:45:54 78° 103° (ESE) 06:51:12 437.470
AO-85 17 Dec 06:42:55 06:47:46 71° 241° (WSW) 06:52:57 145.980
BEESAT 2 17 Dec 06:51:07 06:52:45 12° 252° (WSW) 06:54:23 435.950
HO-68 17 Dec 06:54:26 07:01:16 45° 100° (E) 07:08:02 435.675
LilacSat-2 17 Dec 07:05:43 07:09:02 27° 289° (WNW) 07:12:20 437.200
NUDT-PHONESAT 17 Dec 07:07:32 07:11:04 40° 287° (WNW) 07:14:35 437.300
STRAND 1 17 Dec 07:09:17 07:14:23 76° 257° (WSW) 07:19:31 437.568
FO-29 17 Dec 07:13:20 07:20:41 47° 68° (ENE) 07:28:02 435.910
XW-2D 17 Dec 07:16:20 07:19:19 22° 290° (WNW) 07:22:17 145.860 - 145.880
KAITUO 1B 17 Dec 07:16:40 07:20:00 30° 289° (WNW) 07:23:19 145.475/437.950
SEEDS 17 Dec 07:31:52 07:36:07 67° 101° (ESE) 07:40:18 437.485
XW-2B 17 Dec 07:32:57 07:35:12 15° 293° (WNW) 07:37:27 145.730 - 145.750
UWE-3 17 Dec 07:36:02 07:40:09 40° 98° (E) 07:44:22 435.000/436.395/437.385
SRMSAT 17 Dec 07:38:18 07:40:19 12° 181° (S) 07:42:20 437.500
AAUSAT CUBESAT 2 17 Dec 07:42:05 07:45:55 35° 97° (E) 07:49:41 437.432
CUBEBUG 2 17 Dec 07:42:20 07:46:40 87° 103° (ESE) 07:51:07 437.445
XW-2F 17 Dec 07:42:57 07:44:35 12° 294° (WNW) 07:46:13 145.980 - 146.000
ZACube-1 17 Dec 07:54:36 07:58:35 33° 97° (E) 08:02:38 437.345
O/OREOS (USA 219) 17 Dec 07:57:03 08:01:38 75° 109° (ESE) 08:06:12 437.305
CUTE 1.7 + AOD 2 17 Dec 08:00:56 08:04:47 33° 289° (WNW) 08:08:36 437.475
Oscar 11 17 Dec 08:09:25 08:13:08 27° 96° (E) 08:16:49 .
CUTE-I 17 Dec 08:22:45 08:25:14 13° 300° (WNW) 08:27:43 437.470
TIGRISAT 17 Dec 08:25:29 08:28:30 19° 67° (ENE) 08:31:30 435.000
AO-73 17 Dec 08:26:25 08:30:48 68° 101° (E) 08:35:16 145.935
UNISAT 6 17 Dec 08:29:11 08:32:33 23° 69° (ENE) 08:35:55 437.425
XW-2A 17 Dec 08:29:59 08:33:17 47° 285° (WNW) 08:36:35 145.665 - 145.685
HO-68 17 Dec 08:42:31 08:48:46 34° 297° (WNW) 08:54:58 435.675
FO-29 17 Dec 08:58:38 09:05:40 37° 265° (W) 09:12:50 435.910
SEEDS 17 Dec 09:10:30 09:11:10 10° 297° (WNW) 09:11:51 437.485
UWE-3 17 Dec 09:13:24 09:16:18 18° 293° (WNW) 09:19:16 435.000/436.395/437.385
AAUSAT CUBESAT 2 17 Dec 09:18:16 09:21:03 18° 293° (WNW) 09:23:51 437.432
Max Valier Satellite 17 Dec 09:24:00 09:26:56 22° 95° (E) 09:29:51 145.860
ZACube-1 17 Dec 09:31:20 09:34:39 21° 292° (WNW) 09:38:00 437.345
nSIGHT-1 17 Dec 09:36:28 09:39:06 24° 133° (SE) 09:41:45 .
O/OREOS (USA 219) 17 Dec 09:39:55 09:41:35 12° 307° (NW) 09:43:14 437.305
EO-88 17 Dec 09:44:46 09:47:52 26° 96° (E) 09:50:57 145.990 - 145.960
Oscar 11 17 Dec 09:45:35 09:49:09 25° 291° (WNW) 09:52:42 .
PRISM 17 Dec 09:48:02 09:52:03 50° 73° (ENE) 09:56:05 437.425
DELFI C3 17 Dec 09:50:41 09:54:37 75° 101° (ESE) 09:58:31 145.870
TIGRISAT 17 Dec 10:01:04 10:04:56 34° 262° (W) 10:08:49 435.000
AO-73 17 Dec 10:05:08 10:06:28 11° 296° (WNW) 10:07:49 145.935
UNISAT 6 17 Dec 10:05:27 10:09:07 28° 264° (W) 10:12:48 437.425
ISS 17 Dec 10:28:36 10:31:51 67° 139° (SE) 10:35:08 437.550
POLYITAN 1 17 Dec 10:30:12 10:32:54 17° 66° (ENE) 10:35:35 437.675
ESTCUBE 1 17 Dec 10:44:33 10:47:06 15° 92° (E) 10:49:39 437.505/2401.250
QB50P2 17 Dec 10:54:51 10:58:41 35° 71° (ENE) 11:02:31 145.880/145.840
DUCHIFAT 1 17 Dec 10:55:29 10:58:50 24° 69° (ENE) 11:02:12 145.980
Max Valier Satellite 17 Dec 10:57:42 11:00:38 22° 290° (WNW) 11:03:34 145.860
AIST 2D 17 Dec 11:07:19 11:10:42 46° 261° (W) 11:14:08 435.315
nSIGHT-1 17 Dec 11:12:15 11:15:12 33° 329° (NNW) 11:18:10 .
EO-88 17 Dec 11:18:45 11:21:18 18° 291° (WNW) 11:23:50 145.990 - 145.960
NANOSAT C BR1 17 Dec 11:22:51 11:26:57 59° 74° (ENE) 11:31:04 145.865
PRISM 17 Dec 11:25:54 11:27:33 12° 268° (W) 11:29:14 437.425
BUGSAT 1 17 Dec 11:25:57 11:27:25 12° 64° (ENE) 11:28:52 437.445
NO-84 17 Dec 11:33:56 11:36:18 16° 29° (NNE) 11:38:46 435.350 FM
Oscar 19 17 Dec 11:37:21 11:39:37 13° 61° (ENE) 11:41:53 437.125/150
LO-87 17 Dec 11:38:23 11:41:57 89° 257° (WSW) 11:45:30 145.935 - 145.965
EO-79 17 Dec 11:40:14 11:44:24 74° 259° (W) 11:48:36 145.935-145.965
POLYITAN 1 17 Dec 12:04:28 12:08:21 37° 262° (W) 12:12:16 437.675
VELOX 1 17 Dec 12:04:31 12:06:56 14° 92° (E) 12:09:20 145.980
ISS 17 Dec 12:06:11 12:08:37 19° 336° (NNW) 12:11:02 437.550
ESTCUBE 1 17 Dec 12:19:46 12:24:09 48° 287° (WNW) 12:28:29 437.505/2401.250
SPROUT 17 Dec 12:19:53 12:23:50 37° 98° (E) 12:27:47 437.525
RS-15 17 Dec 12:23:36 12:31:45 21° 99° (E) 12:39:52 29.354- 29.394
DUCHIFAT 1 17 Dec 12:30:57 12:34:23 25° 264° (W) 12:37:50 145.980
QB50P2 17 Dec 12:31:46 12:34:33 17° 267° (W) 12:37:21 145.880/145.840
AO-91 17 Dec 12:34:38 12:39:09 41° 74° (ENE) 12:43:15 145.960
Gurwin Techsat 1B 17 Dec 12:40:56 12:45:48 38° 69° (ENE) 12:50:42 435.225
AO-7 17 Dec 12:41:27 12:45:17 14° 47° (NE) 12:49:06 .
nSIGHT-1 17 Dec 12:51:27 12:52:10 11° 348° (NNW) 12:52:54 .
BUGSAT 1 17 Dec 12:58:22 13:02:19 52° 261° (W) 13:06:14 437.445
NANOSAT C BR1 17 Dec 13:02:46 13:02:59 10° 269° (W) 13:03:13 145.865
NO-84 17 Dec 13:10:10 13:13:56 85° 224° (SW) 13:17:59 435.350 FM
Oscar 19 17 Dec 13:13:06 13:18:13 77° 257° (WSW) 13:23:25 437.125/150
50 SAT 17 Dec 13:21:21 13:23:27 16° 95° (E) 13:25:32 437.505
YUBILEINY 17 Dec 13:31:33 13:40:00 47° 76° (ENE) 13:48:19 435.215
M-CUBED/EXP-1 PRIME 17 Dec 13:39:05 13:41:28 14° 58° (ENE) 13:43:53 437.505
VELOX 1 17 Dec 13:39:23 13:43:36 46° 288° (WNW) 13:47:47 145.980
SPROUT 17 Dec 13:56:36 13:59:25 17° 293° (WNW) 14:02:14 437.525
UKube-1 17 Dec 14:02:28 14:06:27 36° 98° (E) 14:10:24 .
SO-50 17 Dec 14:04:36 14:08:21 27° 113° (ESE) 14:12:10 436.795
AO-91 17 Dec 14:12:21 14:15:37 18° 265° (W) 14:18:43 145.960
Gurwin Techsat 1B 17 Dec 14:21:29 14:25:48 25° 265° (W) 14:30:09 435.225
DX 1 17 Dec 14:24:48 14:29:08 73° 285° (WNW) 14:33:26 434.975-435.025
AO-7 17 Dec 14:28:16 14:36:25 65° 67° (ENE) 14:44:38 .
MOZHAYETS 4 17 Dec 14:28:32 14:31:25 16° 92° (E) 14:34:16
RS-15 17 Dec 14:30:08 14:42:28 86° 118° (ESE) 14:54:45 29.354- 29.394
ITAMSAT 1 17 Dec 14:32:45 14:37:23 33° 68° (ENE) 14:42:00 435.822/435.867
50 SAT 17 Dec 14:52:59 14:55:17 19° 290° (WNW) 14:57:35 437.505
M-CUBED/EXP-1 PRIME 17 Dec 15:10:54 15:15:13 62° 254° (WSW) 15:19:47 437.505
BEESAT 17 Dec 15:16:43 15:21:03 34° 98° (E) 15:25:21 436.000
ISS 17 Dec 15:22:11 15:23:50 13° 17° (NNE) 15:25:29 437.550
YUBILEINY 17 Dec 15:28:45 15:36:29 36° 275° (W) 15:44:11 435.215
UKube-1 17 Dec 15:39:10 15:42:10 19° 294° (WNW) 15:45:10 .
SO-50 17 Dec 15:44:46 15:48:43 30° 310° (NW) 15:52:43 436.795
ITUPSAT 1 17 Dec 15:46:58 15:51:45 70° 102° (ESE) 15:56:31 437.325
DOVE 4 17 Dec 15:58:12 16:03:09 44° 72° (ENE) 16:07:58 437.250
CUBESAT XI-V 17 Dec 15:59:22 16:03:42 35° 97° (E) 16:07:59 437.345
nSIGHT-1 17 Dec 16:04:01 16:06:44 24° 28° (NNE) 16:09:26 .
MOZHAYETS 4 17 Dec 16:04:20 16:08:46 46° 287° (WNW) 16:13:11
ITAMSAT 1 17 Dec 16:12:23 16:16:48 28° 264° (W) 16:21:16 435.822/435.867
AO-7 17 Dec 16:23:01 16:29:39 26° 265° (W) 16:36:22 .
CUTE-I 17 Dec 16:24:13 16:26:59 14° 61° (ENE) 16:29:46 437.470
XW-2D 17 Dec 16:24:30 16:25:02 10° 65° (ENE) 16:25:34 145.860 - 145.880
O/OREOS (USA 219) 17 Dec 16:31:17 16:33:00 12° 53° (NE) 16:34:43 437.305
XW-2B 17 Dec 16:38:42 16:40:54 15° 67° (ENE) 16:43:07 145.730 - 145.750
RS-15 17 Dec 16:45:47 16:56:32 34° 323° (NW) 17:07:12 29.354- 29.394
XW-2F 17 Dec 16:47:20 16:49:54 18° 68° (ENE) 16:52:31 145.980 - 146.000
BEESAT 17 Dec 16:54:49 16:58:36 24° 293° (WNW) 17:02:23 436.000
ISS 17 Dec 16:57:40 17:00:55 53° 35° (NE) 17:04:08 437.550
XW-2C 17 Dec 17:04:59 17:08:20 31° 72° (ENE) 17:11:45 145.795 - 145.815
CUTE 1.7 + AOD 2 17 Dec 17:18:29 17:20:15 12° 64° (ENE) 17:22:02 437.475
HO-68 17 Dec 17:22:11 17:28:14 30° 62° (ENE) 17:34:17 435.675
ITUPSAT 1 17 Dec 17:26:57 17:28:57 13° 298° (WNW) 17:30:58 437.325
KKS-1 17 Dec 17:29:35 17:33:57 58° 101° (E) 17:38:18 437.445
DOVE 4 17 Dec 17:36:59 17:40:55 21° 267° (W) 17:44:47 437.250
CUBESAT XI-V 17 Dec 17:37:12 17:40:49 22° 293° (WNW) 17:44:24 437.345
nSIGHT-1 17 Dec 17:40:00 17:43:00 37° 225° (SW) 17:45:59 .
NUDT-PHONESAT 17 Dec 17:44:23 17:48:02 67° 75° (ENE) 17:51:43 437.300
LilacSat-2 17 Dec 17:45:15 17:49:02 69° 259° (W) 17:52:52 437.200
PCSat 17 Dec 17:53:36 17:58:55 62° 114° (ESE) 18:04:16 145.827
KAITUO 1B 17 Dec 17:54:11 17:57:55 84° 258° (WSW) 18:01:43 145.475/437.950
XW-2D 17 Dec 17:54:59 17:58:41 53° 260° (W) 18:02:26 145.860 - 145.880
CUTE-I 17 Dec 18:01:00 18:06:21 74° 256° (WSW) 18:11:45 437.470
STARS 17 Dec 18:02:53 18:07:09 52° 100° (E) 18:11:23 437.465
O/OREOS (USA 219) 17 Dec 18:08:27 18:12:56 71° 250° (WSW) 18:17:21 437.305
XW-2B 17 Dec 18:11:17 18:14:45 34° 263° (W) 18:18:16 145.730 - 145.750
BEESAT 3 17 Dec 18:14:42 18:16:37 13° 109° (ESE) 18:18:33 437.485
XW-2F 17 Dec 18:20:30 18:23:46 28° 264° (W) 18:27:05 145.980 - 146.000
SEEDS 17 Dec 18:21:54 18:25:48 37° 72° (ENE) 18:29:44 437.485
AAUSAT CUBESAT 2 17 Dec 18:31:10 18:34:15 20° 68° (ENE) 18:37:19 437.432
UWE-3 17 Dec 18:32:11 18:35:36 26° 70° (ENE) 18:39:02 435.000/436.395/437.385
ISS 17 Dec 18:35:10 18:37:04 15° 231° (SW) 18:38:57 437.550
CUBEBUG 2 17 Dec 18:39:01 18:43:08 58° 75° (ENE) 18:47:13 437.445
XW-2C 17 Dec 18:40:14 18:42:34 16° 267° (W) 18:44:56 145.795 - 145.815
ZACube-1 17 Dec 18:49:45 18:52:51 21° 68° (ENE) 18:55:58 437.345
CUTE 1.7 + AOD 2 17 Dec 18:51:23 18:55:33 56° 260° (W) 18:59:46 437.475
XW-2A 17 Dec 18:59:18 19:02:24 37° 74° (ENE) 19:05:33 145.665 - 145.685
BEESAT 2 17 Dec 19:03:27 19:04:59 12° 108° (ESE) 19:06:31 435.950
Oscar 11 17 Dec 19:03:31 19:06:27 18° 67° (ENE) 19:09:24 .
RS-15 17 Dec 19:06:42 19:14:30 18° 358° (N) 19:22:07 29.354- 29.394
KKS-1 17 Dec 19:07:59 19:09:59 13° 297° (WNW) 19:11:58 437.445
HO-68 17 Dec 19:08:39 19:15:36 51° 259° (W) 19:22:35 435.675
AO-73 17 Dec 19:20:37 19:24:28 40° 73° (ENE) 19:28:23 145.935
STRAND 1 17 Dec 19:21:11 19:25:59 40° 99° (E) 19:30:45 437.568
PCSat 17 Dec 19:38:46 19:42:44 20° 312° (NW) 19:46:43 145.827
STARS 17 Dec 19:40:46 19:43:01 14° 296° (WNW) 19:45:15 437.465
BEESAT 3 17 Dec 19:49:51 19:53:42 48° 304° (NW) 19:57:35 437.485
SEEDS 17 Dec 19:58:52 20:01:35 17° 267° (W) 20:04:20 437.485
AAUSAT CUBESAT 2 17 Dec 20:05:45 20:09:28 31° 264° (W) 20:13:12 437.432
UWE-3 17 Dec 20:08:43 20:12:00 23° 265° (W) 20:15:18 435.000/436.395/437.385
FO-29 17 Dec 20:10:37 20:16:48 40° 95° (E) 20:22:16 435.910
FALCONSAT 3 17 Dec 20:24:51 20:27:32 19° 157° (SSE) 20:30:13 435.103
ZACube-1 17 Dec 20:25:23 20:28:57 28° 264° (W) 20:32:34 437.345
DELFI C3 17 Dec 20:34:18 20:37:54 33° 72° (ENE) 20:41:30 145.870
BEESAT 2 17 Dec 20:38:16 20:42:12 54° 304° (WNW) 20:46:11 435.950
Oscar 11 17 Dec 20:38:17 20:42:16 37° 262° (W) 20:46:18 .
AO-85 17 Dec 20:56:36 21:00:20 49° 117° (ESE) 21:04:15 145.980
AO-73 17 Dec 20:58:39 21:00:54 14° 268° (W) 21:03:09 145.935
STRAND 1 17 Dec 21:00:57 21:04:52 23° 294° (WNW) 21:08:48 437.568
RS-15 17 Dec 21:22:28 21:32:38 31° 34° (NNE) 21:42:18 29.354- 29.394
Max Valier Satellite 17 Dec 21:33:59 21:37:35 61° 260° (W) 21:41:14 145.860
ESTCUBE 1 17 Dec 21:43:44 21:45:38 13° 63° (ENE) 21:47:32 437.505/2401.250
